Date,TemperatureHighF,TemperatureAvgF,TemperatureLowF,DewpointHighF,DewpointAvgF,DewpointLowF,HumidityHigh,HumidityAvg,HumidityLow,PressureMaxIn,PressureMinIn,WindSpeedMaxMPH,WindSpeedAvgMPH,GustSpeedMaxMPH,PrecipitationSumIn
2013-1-1,32,24,8,-100,-100,-100,0,0,100,0.00,40.00,0,-999,0,0.00
2013-1-2,25,11,1,-100,-100,-100,0,0,100,0.00,40.00,0,-999,0,0.00
2013-1-3,15,4,-4,-100,-100,-100,0,0,100,0.00,40.00,0,-999,0,0.00
2013-1-4,34,20,3,-100,-100,-100,0,0,100,0.00,40.00,0,-999,0,0.00
2013-1-5,36,29,17,-100,-100,-100,0,0,100,0.00,40.00,0,-999,0,0.00
2013-1-6,31,23,16,-100,-100,-100,0,0,100,0.00,40.00,0,-999,0,0.00
2013-1-7,33,26,11,-100,-100,-100,0,0,100,0.00,40.00,0,-999,0,0.00
2013-1-8,45,20,7,-100,-100,-100,0,0,100,0.00,40.00,0,-999,0,0.00
2013-1-9,41,26,16,-100,-100,-100,0,0,100,0.00,40.00,0,-999,0,0.04
2013-1-10,43,36,27,-100,-100,-100,0,0,100,0.00,40.00,0,-999,0,0.07
2013-1-11,36,29,22,-100,-100,-100,0,0,100,0.00,40.00,0,-999,0,0.06
2013-1-12,38,35,34,-100,-100,-100,0,0,100,0.00,40.00,0,-999,0,0.07
2013-1-13,43,37,34,-100,-100,-100,0,0,100,0.00,40.00,0,-999,0,0.00
2013-1-14,57,41,34,-100,-100,-100,0,0,100,0.00,40.00,0,-999,0,0.01
2013-1-15,35,32,28,-100,-100,-100,0,0,100,0.00,40.00,0,-999,0,0.01
2013-1-16,31,29,27,-100,-100,-100,0,0,100,0.00,40.00,0,-999,0,0.00
2013-1-17,35,25,14,-100,-100,-100,0,0,100,0.00,40.00,0,-999,0,0.00
2013-1-18,23,13,6,-100,-100,-100,0,0,100,0.00,40.00,0,-999,0,0.00
2013-1-19,39,24,8,-100,-100,-100,0,0,100,0.00,40.00,0,-999,0,0.00
2013-1-20,44,31,20,-100,-100,-100,0,0,100,0.00,40.00,0,-999,0,0.07
2013-1-21,27,20,12,-100,-100,-100,0,0,100,0.00,40.00,0,-999,0,0.03
2013-1-22,25,16,5,-100,-100,-100,0,0,100,0.00,40.00,0,-999,0,0.00
2013-1-23,10,4,-4,-100,-100,-100,0,0,100,0.00,40.00,0,-999,0,0.00
2013-1-24,14,2,-10,-100,-100,-100,0,0,100,0.00,40.00,0,-999,0,0.00
2013-1-25,20,11,1,-100,-100,-100,0,0,100,0.00,40.00,0,-999,0,0.00
2013-1-26,22,13,7,-100,-100,-100,0,0,100,0.00,40.00,0,-999,0,0.00
2013-1-27,27,16,9,-100,-100,-100,0,0,100,0.00,40.00,0,-999,0,0.00
2013-1-28,20,13,6,-100,-100,-100,0,0,100,0.00,40.00,0,-999,0,0.00
2013-1-29,32,25,20,-100,-100,-100,0,0,100,0.00,40.00,0,-999,0,0.00
2013-1-30,41,36,32,-100,-100,-100,0,0,100,0.00,40.00,0,-999,0,0.19
2013-1-31,48,35,25,-100,-100,-100,0,0,100,0.00,40.00,0,-999,0,0.67
2013-2-1,29,23,17,-100,-100,-100,0,0,100,0.00,40.00,0,-999,0,0.01
2013-2-2,23,18,11,-100,-100,-100,0,0,100,0.00,40.00,0,-999,0,0.00
2013-2-3,30,20,12,-100,-100,-100,0,0,100,0.00,40.00,0,-999,0,0.00
2013-2-4,28,21,15,-100,-100,-100,0,0,100,0.00,40.00,0,-999,0,0.00
2013-2-5,30,18,7,-100,-100,-100,0,0,100,0.00,40.00,0,-999,0,0.00
2013-2-6,36,25,16,-100,-100,-100,0,0,100,0.00,40.00,0,-999,0,0.00
2013-2-7,25,17,8,-100,-100,-100,0,0,100,0.00,40.00,0,-999,0,0.00
2013-2-8,21,19,16,-100,-100,-100,0,0,100,0.00,40.00,0,-999,0,0.00
2013-2-9,20,15,8,-100,-100,-100,0,0,100,0.00,40.00,0,-999,0,0.00
2013-2-10,27,13,1,-100,-100,-100,0,0,100,0.00,40.00,0,-999,0,0.00
2013-2-11,30,21,7,-100,-100,-100,0,0,100,0.00,40.00,0,-999,0,0.00
2013-2-12,41,34,30,-100,-100,-100,0,0,100,0.00,40.00,0,-999,0,0.12
2013-2-13,38,31,23,-100,-100,-100,0,0,100,0.00,40.00,0,-999,0,0.01
2013-2-14,41,30,23,-100,-100,-100,0,0,100,0.00,40.00,0,-999,0,0.00
2013-2-15,47,33,23,-100,-100,-100,0,0,100,0.00,40.00,0,-999,0,0.00
2013-2-16,34,30,22,-100,-100,-100,0,0,100,0.00,40.00,0,-999,0,0.00
2013-2-17,22,17,12,-100,-100,-100,0,0,100,0.00,40.00,0,-999,0,0.00
2013-2-18,29,19,11,-100,-100,-100,0,0,100,0.00,40.00,0,-999,0,0.00
2013-2-19,40,27,12,-100,-100,-100,0,0,100,0.00,40.00,0,-999,0,0.00
2013-2-20,33,28,22,-100,-100,-100,0,0,100,0.00,40.00,0,-999,0,0.00
2013-2-21,27,21,17,-100,-100,-100,0,0,100,0.00,40.00,0,-999,0,0.01
2013-2-22,38,30,23,-100,-100,-100,0,0,100,0.00,40.00,0,-999,0,0.12
2013-2-23,33,31,27,-100,-100,-100,0,0,100,0.00,40.00,0,-999,0,0.01
2013-2-24,35,33,31,-100,-100,-100,0,0,100,0.00,40.00,0,-999,0,0.08
2013-2-25,36,32,28,-100,-100,-100,0,0,100,0.00,40.00,0,-999,0,0.02
2013-2-26,38,33,30,-100,-100,-100,0,0,100,0.00,40.00,0,-999,0,0.01
2013-2-27,35,33,32,-100,-100,-100,0,0,100,0.00,40.00,0,-999,0,0.00
2013-2-28,43,36,30,-100,-100,-100,0,0,100,0.00,40.00,0,-999,0,0.00
2013-3-1,39,34,31,-100,-100,-100,0,0,100,0.00,40.00,0,-999,0,0.00
2013-3-2,37,32,27,-100,-100,-100,0,0,100,0.00,40.00,0,-999,0,0.00
2013-3-3,36,29,25,-100,-100,-100,0,0,100,0.00,40.00,0,-999,0,0.03
2013-3-4,34,29,26,-100,-100,-100,0,0,100,0.00,40.00,0,-999,0,0.01
2013-3-5,43,32,26,-100,-100,-100,0,0,100,0.00,40.00,0,-999,0,0.00
2013-3-6,36,34,31,-100,-100,-100,0,0,100,0.00,40.00,0,-999,0,0.00
2013-3-7,38,34,30,-100,-100,-100,0,0,100,0.00,40.00,0,-999,0,0.00
2013-3-8,41,33,29,-100,-100,-100,0,0,100,0.00,40.00,0,-999,0,0.00
2013-3-9,55,37,22,-100,-100,-100,0,0,100,0.00,40.00,0,-999,0,0.00
2013-3-10,45,34,20,-100,-100,-100,0,0,100,0.00,40.00,0,-999,0,0.00
2013-3-11,44,38,34,-100,-100,-100,0,0,100,0.00,40.00,0,-999,0,0.00
2013-3-12,49,41,36,-100,-100,-100,0,0,100,0.00,40.00,0,-999,0,0.54
2013-3-13,46,40,29,-100,-100,-100,0,0,100,0.00,40.00,0,-999,0,0.27
2013-3-14,35,28,19,-100,-100,-100,0,0,100,0.00,40.00,0,-999,0,0.01
2013-3-15,35,26,16,-100,-100,-100,0,0,100,0.00,40.00,0,-999,0,0.00
2013-3-16,33,28,21,-100,-100,-100,0,0,100,0.00,40.00,0,-999,0,0.00
2013-3-17,32,25,18,-100,-100,-100,0,0,100,0.00,40.00,0,-999,0,0.00
2013-3-18,34,24,10,-100,-100,-100,0,0,100,0.00,40.00,0,-999,0,0.00
2013-3-19,31,28,26,-100,-100,-100,0,0,100,0.00,40.00,0,-999,0,0.00
2013-3-20,36,30,25,-100,-100,-100,0,0,100,0.00,40.00,0,-999,0,0.05
2013-3-21,39,28,13,-100,-100,-100,0,0,100,0.00,40.00,0,-999,0,0.01
2013-3-22,37,28,17,-100,-100,-100,0,0,100,0.00,40.00,0,-999,0,0.00
2013-3-23,40,32,25,-100,-100,-100,0,0,100,0.00,40.00,0,-999,0,0.00
2013-3-24,42,35,26,-100,-100,-100,0,0,100,0.00,40.00,0,-999,0,0.00
2013-3-25,42,32,22,-100,-100,-100,0,0,100,0.00,40.00,0,-999,0,0.00
2013-3-26,47,38,30,-100,-100,-100,0,0,100,0.00,40.00,0,-999,0,0.00
2013-3-27,49,38,25,-100,-100,-100,0,0,100,0.00,40.00,0,-999,0,0.00
2013-3-28,49,39,32,-100,-100,-100,0,0,100,0.00,40.00,0,-999,0,0.02
2013-3-29,50,40,31,-100,-100,-100,0,0,100,0.00,40.00,0,-999,0,0.01
2013-3-30,52,41,29,-100,-100,-100,0,0,100,0.00,40.00,0,-999,0,0.01
2013-3-31,55,40,24,-100,-100,-100,0,0,100,0.00,40.00,0,-999,0,0.03
2013-4-1,49,38,30,-100,-100,-100,0,0,100,0.00,40.00,0,-999,0,0.33
2013-4-2,39,31,25,-100,-100,-100,0,0,100,0.00,40.00,0,-999,0,0.01
2013-4-3,42,34,25,-100,-100,-100,0,0,100,0.00,40.00,0,-999,0,0.00
2013-4-4,53,38,24,-100,-100,-100,0,0,100,0.00,40.00,0,-999,0,0.00
2013-4-5,54,41,30,-100,-100,-100,0,0,100,0.00,40.00,0,-999,0,0.00
2013-4-6,42,33,24,-100,-100,-100,0,0,100,0.00,40.00,0,-999,0,0.00
2013-4-7,54,40,27,-100,-100,-100,0,0,100,0.00,40.00,0,-999,0,0.00
2013-4-8,58,47,38,-100,-100,-100,0,0,100,0.00,40.00,0,-999,0,0.00
2013-4-9,59,47,41,-100,-100,-100,0,0,100,0.00,40.00,0,-999,0,0.13
2013-4-10,52,45,40,-100,-100,-100,0,0,100,0.00,40.00,0,-999,0,0.70
2013-4-11,45,42,37,-100,-100,-100,0,0,100,0.00,40.00,0,-999,0,0.23
2013-4-12,37,33,30,-100,-100,-100,0,0,100,0.00,40.00,0,-999,0,0.02
2013-4-13,50,40,32,-100,-100,-100,0,0,100,0.00,40.00,0,-999,0,0.29
2013-4-14,48,40,32,-100,-100,-100,0,0,100,0.00,40.00,0,-999,0,0.01
2013-4-15,56,42,27,-100,-100,-100,0,0,100,0.00,40.00,0,-999,0,0.01
2013-4-16,62,50,36,-100,-100,-100,0,0,100,0.00,40.00,0,-999,0,0.07
2013-4-17,59,51,37,-100,-100,-100,0,0,100,0.00,40.00,0,-999,0,0.06
2013-4-18,59,46,32,-100,-100,-100,0,0,100,0.00,40.00,0,-999,0,0.00
2013-4-19,73,62,51,-100,-100,-100,0,0,100,0.00,40.00,0,-999,0,0.29
2013-4-20,59,47,37,-100,-100,-100,0,0,100,0.00,40.00,0,-999,0,0.52
2013-4-21,50,40,31,-100,-100,-100,0,0,100,0.00,40.00,0,-999,0,0.01
2013-4-22,50,39,27,-100,-100,-100,0,0,100,0.00,40.00,0,-999,0,0.00
2013-4-23,40,37,30,-100,-100,-100,0,0,100,0.00,40.00,0,-999,0,0.00
2013-4-24,75,56,38,-100,-100,-100,0,0,100,0.00,40.00,0,-999,0,0.00
2013-4-25,63,52,37,-100,-100,-100,0,0,100,0.00,40.00,0,-999,0,0.00
2013-4-26,57,45,31,-100,-100,-100,0,0,100,0.00,40.00,0,-999,0,0.00
2013-4-27,66,49,34,-100,-100,-100,0,0,100,0.00,40.00,0,-999,0,0.00
2013-4-28,68,53,34,-100,-100,-100,0,0,100,0.00,40.00,0,-999,0,0.00
2013-4-29,68,56,44,-100,-100,-100,0,0,100,0.00,40.00,0,-999,0,0.00
2013-4-30,70,60,51,-100,-100,-100,0,0,100,0.00,40.00,0,-999,0,0.00
2013-5-1,72,58,42,-100,-100,-100,0,0,100,0.00,40.00,0,-999,0,0.00
2013-5-2,80,59,43,-100,-100,-100,0,0,100,0.00,40.00,0,-999,0,0.00
2013-5-3,65,54,40,-100,-100,-100,0,0,100,0.00,40.00,0,-999,0,0.00
2013-5-4,70,58,42,-100,-100,-100,0,0,100,0.00,40.00,0,-999,0,0.00
2013-5-5,70,56,40,-100,-100,-100,0,0,100,0.00,40.00,0,-999,0,0.00
2013-5-6,79,59,41,-100,-100,-100,0,0,100,0.00,40.00,0,-999,0,0.00
2013-5-7,80,63,45,-100,-100,-100,0,0,100,0.00,40.00,0,-999,0,0.00
2013-5-8,70,62,52,-100,-100,-100,0,0,100,0.00,40.00,0,-999,0,0.23
2013-5-9,67,62,58,-100,-100,-100,0,0,100,0.00,40.00,0,-999,0,0.16
2013-5-10,77,63,52,-100,-100,-100,0,0,100,0.00,40.00,0,-999,0,0.01
2013-5-11,69,63,59,-100,-100,-100,0,0,100,0.00,40.00,0,-999,0,0.92
2013-5-12,67,57,44,-100,-100,-100,0,0,100,0.00,40.00,0,-999,0,0.81
2013-5-13,50,45,41,-100,-100,-100,0,0,100,0.00,40.00,0,-999,0,0.00
2013-5-14,57,47,36,-100,-100,-100,0,0,100,0.00,40.00,0,-999,0,0.00
2013-5-15,63,46,33,-100,-100,-100,0,0,100,0.00,40.00,0,-999,0,0.13
2013-5-16,76,59,45,-100,-100,-100,0,0,100,0.00,40.00,0,-999,0,0.02
2013-5-17,67,54,45,-100,-100,-100,0,0,100,0.00,40.00,0,-999,0,0.00
2013-5-18,71,56,39,-100,-100,-100,0,0,100,0.00,40.00,0,-999,0,0.00
2013-5-19,68,56,45,-100,-100,-100,0,0,100,0.00,40.00,0,-999,0,0.29
2013-5-20,72,63,55,-100,-100,-100,0,0,100,0.00,40.00,0,-999,0,0.29
2013-5-21,78,61,52,-100,-100,-100,0,0,100,0.00,40.00,0,-999,0,0.68
2013-5-22,67,57,51,-100,-100,-100,0,0,100,0.00,40.00,0,-999,0,0.94
2013-5-23,75,62,53,-100,-100,-100,0,0,100,0.00,40.00,0,-999,0,0.19
2013-5-24,66,57,46,-100,-100,-100,0,0,100,0.00,40.00,0,-999,0,0.33
2013-5-25,46,43,35,-100,-100,-100,0,0,100,0.00,40.00,0,-999,0,1.20
2013-5-26,53,44,35,-100,-100,-100,0,0,100,0.00,40.00,0,-999,0,0.67
2013-5-27,68,52,36,-100,-100,-100,0,0,100,0.00,40.00,0,-999,0,0.01
2013-5-28,72,56,40,-100,-100,-100,0,0,100,0.00,40.00,0,-999,0,0.00
2013-5-29,59,56,53,-100,-100,-100,0,0,100,0.00,40.00,0,-999,0,0.34
2013-5-30,84,70,55,-100,-100,-100,0,0,100,0.00,40.00,0,-999,0,0.24
2013-5-31,91,73,58,-100,-100,-100,0,0,100,0.00,40.00,0,-999,0,0.01
2013-6-1,92,76,61,-100,-100,-100,0,0,100,0.00,40.00,0,-999,0,0.00
2013-6-2,90,73,65,-100,-100,-100,0,0,100,0.00,40.00,0,-999,0,2.05
2013-6-3,77,68,55,-100,-100,-100,0,0,100,0.00,40.00,0,-999,0,0.35
2013-6-4,68,58,47,-100,-100,-100,0,0,100,0.00,40.00,0,-999,0,0.01
2013-6-5,74,59,45,-100,-100,-100,0,0,100,0.00,40.00,0,-999,0,0.00
2013-6-6,69,62,52,-100,-100,-100,0,0,100,0.00,40.00,0,-999,0,0.02
2013-6-7,58,54,51,-100,-100,-100,0,0,100,0.00,40.00,0,-999,0,0.61
2013-6-8,69,60,52,-100,-100,-100,0,0,100,0.00,40.00,0,-999,0,0.67
2013-6-9,77,65,55,-100,-100,-100,0,0,100,0.00,40.00,0,-999,0,0.02
2013-6-10,71,60,51,-100,-100,-100,0,0,100,0.00,40.00,0,-999,0,0.16
2013-6-11,59,57,54,-100,-100,-100,0,0,100,0.00,40.00,0,-999,0,1.03
2013-6-12,64,58,53,-100,-100,-100,0,0,100,0.00,40.00,0,-999,0,0.56
2013-6-13,65,57,50,-100,-100,-100,0,0,100,0.00,40.00,0,-999,0,0.18
2013-6-14,78,64,55,-100,-100,-100,0,0,100,0.00,40.00,0,-999,0,0.12
2013-6-15,75,63,48,-100,-100,-100,0,0,100,0.00,40.00,0,-999,0,0.01
2013-6-16,72,59,50,-100,-100,-100,0,0,100,0.00,40.00,0,-999,0,0.05
2013-6-17,79,65,53,-100,-100,-100,0,0,100,0.00,40.00,0,-999,0,0.05
2013-6-18,62,59,53,-100,-100,-100,0,0,100,0.00,40.00,0,-999,0,0.12
2013-6-19,73,61,50,-100,-100,-100,0,0,100,0.00,40.00,0,-999,0,0.01
2013-6-20,75,59,45,-100,-100,-100,0,0,100,0.00,40.00,0,-999,0,0.00
2013-6-22,83,77,68,-100,-100,-100,0,0,100,0.00,40.00,0,-999,0,0.05
2013-6-23,86,72,64,-100,-100,-100,0,0,100,0.00,40.00,0,-999,0,0.74
2013-6-24,90,73,64,-100,-100,-100,0,0,100,0.00,40.00,0,-999,0,0.59
2013-6-25,88,73,64,-100,-100,-100,0,0,100,0.00,40.00,0,-999,0,0.69
2013-6-26,75,69,64,-100,-100,-100,0,0,100,0.00,40.00,0,-999,0,0.97
2013-6-27,75,69,64,-100,-100,-100,0,0,100,0.00,40.00,0,-999,0,0.03
2013-6-28,72,66,60,-100,-100,-100,0,0,100,0.00,40.00,0,-999,0,0.81
2013-6-29,82,70,65,-100,-100,-100,0,0,100,0.00,40.00,0,-999,0,0.77
2013-6-30,85,73,64,-100,-100,-100,0,0,100,0.00,40.00,0,-999,0,0.07
2013-7-1,78,71,67,-100,-100,-100,0,0,100,0.00,40.00,0,-999,0,1.20
2013-7-2,77,68,63,-100,-100,-100,0,0,100,0.00,40.00,0,-999,0,2.77
2013-7-3,88,74,63,-100,-100,-100,0,0,100,0.00,40.00,0,-999,0,0.98
2013-7-4,92,79,69,-100,-100,-100,0,0,100,0.00,40.00,0,-999,0,0.11
2013-7-5,92,80,69,-100,-100,-100,0,0,100,0.00,40.00,0,-999,0,0.11
2013-7-6,87,76,69,-100,-100,-100,0,0,100,0.00,40.00,0,-999,0,0.04
2013-7-7,87,75,66,-100,-100,-100,0,0,100,0.00,40.00,0,-999,0,0.04
2013-7-8,83,74,70,-100,-100,-100,0,0,100,0.00,40.00,0,-999,0,0.21
2013-7-9,77,71,67,-100,-100,-100,0,0,100,0.00,40.00,0,-999,0,0.04
2013-7-10,77,71,69,-100,-100,-100,0,0,100,0.00,40.00,0,-999,0,0.57
2013-7-11,84,73,63,-100,-100,-100,0,0,100,0.00,40.00,0,-999,0,0.05
2013-7-12,82,69,61,-100,-100,-100,0,0,100,0.00,40.00,0,-999,0,0.02
2013-7-13,79,70,61,-100,-100,-100,0,0,100,0.00,40.00,0,-999,0,0.00
2013-7-14,88,77,67,-100,-100,-100,0,0,100,0.00,40.00,0,-999,0,0.00
2013-7-15,93,78,68,-100,-100,-100,0,0,100,0.00,40.00,0,-999,0,0.00
2013-7-16,90,79,66,-100,-100,-100,0,0,100,0.00,40.00,0,-999,0,0.00
2013-7-17,92,78,66,-100,-100,-100,0,0,100,0.00,40.00,0,-999,0,0.00
2013-7-18,92,78,72,-100,-100,-100,0,0,100,0.00,40.00,0,-999,0,0.03
2013-7-19,93,81,71,-100,-100,-100,0,0,100,0.00,40.00,0,-999,0,0.06
2013-7-20,85,77,68,-100,-100,-100,0,0,100,0.00,40.00,0,-999,0,0.09
2013-7-21,82,72,63,-100,-100,-100,0,0,100,0.00,40.00,0,-999,0,0.00
2013-7-22,75,67,59,-100,-100,-100,0,0,100,0.00,40.00,0,-999,0,0.02
2013-7-23,79,68,64,-100,-100,-100,0,0,100,0.00,40.00,0,-999,0,1.39
2013-7-24,77,68,55,-100,-100,-100,0,0,100,0.00,40.00,0,-999,0,0.04
2013-7-25,71,62,49,-100,-100,-100,0,0,100,0.00,40.00,0,-999,0,0.00
2013-7-26,75,65,60,-100,-100,-100,0,0,100,0.00,40.00,0,-999,0,0.00
2013-7-27,82,69,55,-100,-100,-100,0,0,100,0.00,40.00,0,-999,0,0.00
2013-7-28,79,69,61,-100,-100,-100,0,0,100,0.00,40.00,0,-999,0,0.03
2013-7-29,83,72,61,-100,-100,-100,0,0,100,0.00,40.00,0,-999,0,0.06
2013-7-30,78,68,57,-100,-100,-100,0,0,100,0.00,40.00,0,-999,0,0.01
2013-7-31,81,69,56,-100,-100,-100,0,0,100,0.00,40.00,0,-999,0,0.00
2013-8-1,77,66,59,-100,-100,-100,0,0,100,0.00,40.00,0,-999,0,0.40
2013-8-2,81,70,61,-100,-100,-100,0,0,100,0.00,40.00,0,-999,0,0.12
2013-8-3,78,66,58,-100,-100,-100,0,0,100,0.00,40.00,0,-999,0,0.22
2013-8-4,74,63,55,-100,-100,-100,0,0,100,0.00,40.00,0,-999,0,0.36
2013-8-5,73,62,52,-100,-100,-100,0,0,100,0.00,40.00,0,-999,0,0.01
2013-8-6,76,63,49,-100,-100,-100,0,0,100,0.00,40.00,0,-999,0,0.00
2013-8-7,77,66,57,-100,-100,-100,0,0,100,0.00,40.00,0,-999,0,0.01
2013-8-8,83,72,65,-100,-100,-100,0,0,100,0.00,40.00,0,-999,0,0.01
2013-8-9,76,72,68,-100,-100,-100,0,0,100,0.00,40.00,0,-999,0,0.50
2013-8-10,78,70,57,-100,-100,-100,0,0,100,0.00,40.00,0,-999,0,0.01
2013-8-11,78,64,52,-100,-100,-100,0,0,100,0.00,40.00,0,-999,0,0.01
2013-8-12,80,67,56,-100,-100,-100,0,0,100,0.00,40.00,0,-999,0,0.00
2013-8-13,71,64,60,-100,-100,-100,0,0,100,0.00,40.00,0,-999,0,0.57
2013-8-14,71,63,54,-100,-100,-100,0,0,100,0.00,40.00,0,-999,0,0.01
2013-8-15,74,60,49,-100,-100,-100,0,0,100,0.00,40.00,0,-999,0,0.00
2013-8-16,77,63,52,-100,-100,-100,0,0,100,0.00,40.00,0,-999,0,0.00
2013-8-17,79,66,54,-100,-100,-100,0,0,100,0.00,40.00,0,-999,0,0.00
2013-8-18,79,65,56,-100,-100,-100,0,0,100,0.00,40.00,0,-999,0,0.00
2013-8-19,83,67,56,-100,-100,-100,0,0,100,0.00,40.00,0,-999,0,0.00
2013-8-20,84,70,59,-100,-100,-100,0,0,100,0.00,40.00,0,-999,0,0.00
2013-8-21,87,72,61,-100,-100,-100,0,0,100,0.00,40.00,0,-999,0,0.00
2013-8-22,87,73,62,-100,-100,-100,0,0,100,0.00,40.00,0,-999,0,0.18
2013-8-23,76,67,54,-100,-100,-100,0,0,100,0.00,40.00,0,-999,0,0.18
2013-8-24,78,62,48,-100,-100,-100,0,0,100,0.00,40.00,0,-999,0,0.00
2013-8-25,80,64,50,-100,-100,-100,0,0,100,0.00,40.00,0,-999,0,0.00
2013-8-26,78,69,62,-100,-100,-100,0,0,100,0.00,40.00,0,-999,0,0.23
2013-8-27,86,73,66,-100,-100,-100,0,0,100,0.00,40.00,0,-999,0,0.01
2013-8-28,85,77,65,-100,-100,-100,0,0,100,0.00,40.00,0,-999,0,2.05
2013-8-29,71,67,64,-100,-100,-100,0,0,100,0.00,40.00,0,-999,0,2.05
2013-8-30,86,71,63,-100,-100,-100,0,0,100,0.00,40.00,0,-999,0,0.01
2013-8-31,78,72,67,-100,-100,-100,0,0,100,0.00,40.00,0,-999,0,1.84
2013-9-1,84,74,67,-100,-100,-100,0,0,100,0.00,40.00,0,-999,0,0.92
2013-9-2,76,72,69,-100,-100,-100,0,0,100,0.00,40.00,0,-999,0,0.44
2013-9-3,75,68,62,-100,-100,-100,0,0,100,0.00,40.00,0,-999,0,0.06
2013-9-4,78,68,59,-100,-100,-100,0,0,100,0.00,40.00,0,-999,0,0.00
2013-9-5,67,61,47,-100,-100,-100,0,0,100,0.00,40.00,0,-999,0,0.12
2013-9-6,69,55,42,-100,-100,-100,0,0,100,0.00,40.00,0,-999,0,0.01
2013-9-7,71,59,50,-100,-100,-100,0,0,100,0.00,40.00,0,-999,0,0.03
2013-9-8,65,58,46,-100,-100,-100,0,0,100,0.00,40.00,0,-999,0,0.03
2013-9-9,70,56,41,-100,-100,-100,0,0,100,0.00,40.00,0,-999,0,0.01
2013-9-10,74,61,52,-100,-100,-100,0,0,100,0.00,40.00,0,-999,0,0.34
2013-9-11,94,74,65,-100,-100,-100,0,0,100,0.00,40.00,0,-999,0,0.69
2013-9-12,84,70,66,-100,-100,-100,0,0,100,0.00,40.00,0,-999,0,1.30
2013-9-13,66,62,56,-100,-100,-100,0,0,100,0.00,40.00,0,-999,0,1.24
2013-9-14,61,56,50,-100,-100,-100,0,0,100,0.00,40.00,0,-999,0,0.01
2013-9-15,70,55,48,-100,-100,-100,0,0,100,0.00,40.00,0,-999,0,0.00
2013-9-16,62,55,41,-100,-100,-100,0,0,100,0.00,40.00,0,-999,0,0.09
2013-9-17,66,50,36,-100,-100,-100,0,0,100,0.00,40.00,0,-999,0,0.02
2013-9-18,50,44,42,-100,-100,-100,0,0,100,0.00,40.00,0,-999,0,0.00
2013-9-19,77,58,44,-100,-100,-100,0,0,100,0.00,40.00,0,-999,0,0.00
2013-9-20,75,60,48,-100,-100,-100,0,0,100,0.00,40.00,0,-999,0,0.00
2013-9-21,73,62,52,-100,-100,-100,0,0,100,0.00,40.00,0,-999,0,0.01
2013-9-22,68,60,49,-100,-100,-100,0,0,100,0.00,40.00,0,-999,0,0.64
2013-9-23,56,49,44,-100,-100,-100,0,0,100,0.00,40.00,0,-999,0,0.04
2013-9-24,63,53,47,-100,-100,-100,0,0,100,0.00,40.00,0,-999,0,0.00
2013-9-25,66,56,46,-100,-100,-100,0,0,100,0.00,40.00,0,-999,0,0.00
2013-9-26,67,55,44,-100,-100,-100,0,0,100,0.00,40.00,0,-999,0,0.00
2013-9-27,69,56,47,-100,-100,-100,0,0,100,0.00,40.00,0,-999,0,0.00
2013-9-28,74,57,48,-100,-100,-100,0,0,100,0.00,40.00,0,-999,0,0.00
2013-9-29,70,56,47,-100,-100,-100,0,0,100,0.00,40.00,0,-999,0,0.00
2013-9-30,71,55,46,-100,-100,-100,0,0,100,0.00,40.00,0,-999,0,0.00
2013-10-1,60,56,50,-100,-100,-100,0,0,100,0.00,40.00,0,-999,0,0.00
2013-10-2,77,62,51,-100,-100,-100,0,0,100,0.00,40.00,0,-999,0,0.00
2013-10-3,75,60,49,-100,-100,-100,0,0,100,0.00,40.00,0,-999,0,0.00
2013-10-4,66,58,47,-100,-100,-100,0,0,100,0.00,40.00,0,-999,0,0.00
2013-10-5,63,59,57,-100,-100,-100,0,0,100,0.00,40.00,0,-999,0,0.00
2013-10-6,58,52,48,-100,-100,-100,0,0,100,0.00,40.00,0,-999,0,0.25
2013-10-7,68,58,51,-100,-100,-100,0,0,100,0.00,40.00,0,-999,0,0.54
2013-10-8,63,52,41,-100,-100,-100,0,0,100,0.00,40.00,0,-999,0,0.14
2013-10-9,64,46,35,-100,-100,-100,0,0,100,0.00,40.00,0,-999,0,0.00
2013-10-10,63,49,41,-100,-100,-100,0,0,100,0.00,40.00,0,-999,0,0.00
2013-10-11,69,53,46,-100,-100,-100,0,0,100,0.00,40.00,0,-999,0,0.00
2013-10-12,58,51,43,-100,-100,-100,0,0,100,0.00,40.00,0,-999,0,0.00
2013-10-13,59,51,43,-100,-100,-100,0,0,100,0.00,40.00,0,-999,0,0.00
2013-10-14,65,54,44,-100,-100,-100,0,0,100,0.00,40.00,0,-999,0,0.00
2013-10-15,62,58,54,-100,-100,-100,0,0,100,0.00,40.00,0,-999,0,0.00
2013-10-16,61,56,53,-100,-100,-100,0,0,100,0.00,40.00,0,-999,0,0.00
2013-10-17,70,58,51,-100,-100,-100,0,0,100,0.00,40.00,0,-999,0,0.05
2013-10-18,60,54,45,-100,-100,-100,0,0,100,0.00,40.00,0,-999,0,0.50
2013-10-19,64,52,39,-100,-100,-100,0,0,100,0.00,40.00,0,-999,0,0.01
2013-10-20,57,51,40,-100,-100,-100,0,0,100,0.00,40.00,0,-999,0,0.02
2013-10-21,63,48,36,-100,-100,-100,0,0,100,0.00,40.00,0,-999,0,0.02
2013-10-22,56,49,39,-100,-100,-100,0,0,100,0.00,40.00,0,-999,0,0.00
2013-10-23,54,43,36,-100,-100,-100,0,0,100,0.00,40.00,0,-999,0,0.00
2013-10-24,48,42,33,-100,-100,-100,0,0,100,0.00,40.00,0,-999,0,0.03
2013-10-25,49,39,33,-100,-100,-100,0,0,100,0.00,40.00,0,-999,0,0.03
2013-10-26,48,41,31,-100,-100,-100,0,0,100,0.00,40.00,0,-999,0,0.01
2013-10-27,55,44,33,-100,-100,-100,0,0,100,0.00,40.00,0,-999,0,0.00
2013-10-28,52,40,30,-100,-100,-100,0,0,100,0.00,40.00,0,-999,0,0.00
2013-10-29,48,34,25,-100,-100,-100,0,0,100,0.00,40.00,0,-999,0,0.00
2013-10-30,47,37,30,-100,-100,-100,0,0,100,0.00,40.00,0,-999,0,0.00
2013-10-31,58,43,33,-100,-100,-100,0,0,100,0.00,40.00,0,-999,0,0.17
2013-11-1,66,61,52,-100,-100,-100,0,0,100,0.00,40.00,0,-999,0,0.70
2013-11-2,60,49,39,-100,-100,-100,0,0,100,0.00,40.00,0,-999,0,0.31
2013-11-3,44,36,27,-100,-100,-100,0,0,100,0.00,40.00,0,-999,0,0.00
2013-11-4,43,31,23,-100,-100,-100,0,0,100,0.00,40.00,0,-999,0,0.00
2013-11-5,50,35,26,-100,-100,-100,0,0,100,0.00,40.00,0,-999,0,0.00
2013-11-6,57,46,35,-100,-100,-100,0,0,100,0.00,40.00,0,-999,0,0.00
2013-11-7,55,49,38,-100,-100,-100,0,0,100,0.00,40.00,0,-999,0,0.14
2013-11-8,41,35,29,-100,-100,-100,0,0,100,0.00,40.00,0,-999,0,0.03
2013-11-9,45,38,33,-100,-100,-100,0,0,100,0.00,40.00,0,-999,0,0.01
2013-11-10,43,38,34,-100,-100,-100,0,0,100,0.00,40.00,0,-999,0,0.11
2013-11-11,46,40,35,-100,-100,-100,0,0,100,0.00,40.00,0,-999,0,0.01
2013-11-12,43,31,27,-100,-100,-100,0,0,100,0.00,40.00,0,-999,0,0.00
2013-11-13,36,28,21,-100,-100,-100,0,0,100,0.00,40.00,0,-999,0,0.00
2013-11-14,46,35,28,-100,-100,-100,0,0,100,0.00,40.00,0,-999,0,0.00
2013-11-15,53,36,27,-100,-100,-100,0,0,100,0.00,40.00,0,-999,0,0.00
2013-11-16,60,40,32,-100,-100,-100,0,0,100,0.00,40.00,0,-999,0,0.00
2013-11-17,49,40,31,-100,-100,-100,0,0,100,0.00,40.00,0,-999,0,0.03
2013-11-18,61,50,37,-100,-100,-100,0,0,100,0.00,40.00,0,-999,0,0.33
2013-11-19,43,34,29,-100,-100,-100,0,0,100,0.00,40.00,0,-999,0,0.02
2013-11-20,41,30,22,-100,-100,-100,0,0,100,0.00,40.00,0,-999,0,0.00
2013-11-21,43,30,18,-100,-100,-100,0,0,100,0.00,40.00,0,-999,0,0.00
2013-11-22,38,35,31,-100,-100,-100,0,0,100,0.00,40.00,0,-999,0,0.14
2013-11-23,41,34,23,-100,-100,-100,0,0,100,0.00,40.00,0,-999,0,0.03
2013-11-24,25,20,15,-100,-100,-100,0,0,100,0.00,40.00,0,-999,0,0.01
2013-11-25,29,20,9,-100,-100,-100,0,0,100,0.00,40.00,0,-999,0,0.00
2013-11-26,35,30,26,-100,-100,-100,0,0,100,0.00,40.00,0,-999,0,0.01
2013-11-27,42,37,32,-100,-100,-100,0,0,100,0.00,40.00,0,-999,0,1.19
2013-11-28,33,26,16,-100,-100,-100,0,0,100,0.00,40.00,0,-999,0,0.04
2013-11-29,31,18,11,-100,-100,-100,0,0,100,0.00,40.00,0,-999,0,0.01
2013-11-30,28,20,8,-100,-100,-100,0,0,100,0.00,40.00,0,-999,0,0.00
2013-12-1,37,32,27,-100,-100,-100,0,0,100,0.00,40.00,0,-999,0,0.00
2013-12-2,39,34,31,-100,-100,-100,0,0,100,0.00,40.00,0,-999,0,0.00
2013-12-3,36,33,32,-100,-100,-100,0,0,100,0.00,40.00,0,-999,0,0.00
2013-12-4,43,33,27,-100,-100,-100,0,0,100,0.00,40.00,0,-999,0,0.00
2013-12-5,39,35,26,-100,-100,-100,0,0,100,0.00,40.00,0,-999,0,0.00
2013-12-6,42,39,33,-100,-100,-100,0,0,100,0.00,40.00,0,-999,0,0.52
2013-12-7,34,31,24,-100,-100,-100,0,0,100,0.00,40.00,0,-999,0,0.01
2013-12-8,29,25,22,-100,-100,-100,0,0,100,0.00,40.00,0,-999,0,0.00
2013-12-9,29,26,23,-100,-100,-100,0,0,100,0.00,40.00,0,-999,0,0.00
2013-12-10,33,28,22,-100,-100,-100,0,0,100,0.00,40.00,0,-999,0,0.00
2013-12-11,28,24,19,-100,-100,-100,0,0,100,0.00,40.00,0,-999,0,0.00
2013-12-12,24,15,10,-100,-100,-100,0,0,100,0.00,40.00,0,-999,0,0.00
2013-12-13,24,14,5,-100,-100,-100,0,0,100,0.00,40.00,0,-999,0,0.00
2013-12-14,12,7,1,-100,-100,-100,0,0,100,0.00,40.00,0,-999,0,0.00
2013-12-15,25,20,12,-100,-100,-100,0,0,100,0.00,40.00,0,-999,0,0.00
2013-12-16,25,17,3,-100,-100,-100,0,0,100,0.00,40.00,0,-999,0,0.00
2013-12-17,12,4,-9,-100,-100,-100,0,0,100,0.00,40.00,0,-999,0,0.00
2013-12-18,30,18,10,-100,-100,-100,0,0,100,0.00,40.00,0,-999,0,0.00
2013-12-19,37,29,22,-100,-100,-100,0,0,100,0.00,40.00,0,-999,0,0.06
2013-12-20,40,34,31,-100,-100,-100,0,0,100,0.00,40.00,0,-999,0,0.04
2013-12-21,40,36,34,-100,-100,-100,0,0,100,0.00,40.00,0,-999,0,0.14
2013-12-22,41,36,34,-100,-100,-100,0,0,100,0.00,40.00,0,-999,0,0.21
2013-12-23,36,34,33,-100,-100,-100,0,0,100,0.00,40.00,0,-999,0,0.17
2013-12-24,33,28,24,-100,-100,-100,0,0,100,0.00,40.00,0,-999,0,0.17
2013-12-30,33,19,6,-100,-100,-100,0,0,100,0.00,40.00,0,-999,0,0.00
2013-12-31,16,8,3,-100,-100,-100,0,0,100,0.00,40.00,0,-999,0,0.00
2014-1-1,23,12,5,-100,-100,-100,0,0,100,0.00,40.00,0,-999,0,0.00
2014-1-2,9,6,2,-100,-100,-100,0,0,100,0.00,40.00,0,-999,0,0.00